{"data":{"norad_id":57616,"intl_designator":"2023-119Q","name":"STARLINK-30075","alt_names":[],"object_type":"PAYLOAD","status":"ACTIVE","operator":null,"country":"US","launch_date":"2023-08-11","launch_site_code":"AFETR","launch_vehicle":null,"mission":null,"orbit_class":"UNKNOWN","rcs_meters":null,"size_class":null,"mass_kg":null,"dimensions":null,"purposes":["comms"],"wikipedia_slug":null,"has_3d_model":false,"image_url":null,"decayed_at":null,"tle_current":{"epoch":"2026-09-20T03:59:29.650560Z","epoch_age_seconds":156807,"freshness":"FRESH","line1":"1 57616U 23119Q   26263.16631540 -.00000134  00000+0  46987-5 0  9993","line2":"2 57616  43.0043  62.8933 0002832 261.9178  98.1353 15.27582811172831","mean_motion":15.27582811,"eccentricity":0.0002832,"inclination_deg":43.0043,"raan_deg":62.8933,"arg_perigee_deg":261.9178,"mean_anomaly_deg":98.1353,"bstar":4.6987e-6,"rev_number":17283,"period_min":94.266575247553,"perigee_km":481.09759338864,"apogee_km":484.98376442597,"semimajor_km":6861.1776789073,"source":"CELESTRAK","updated_at":"2026-09-21T09:00:33.663252Z"}}}